Флер

Франция     48°45′01″N   0°33′55″E
темп.,
°C
ветер,
м/с
пор.,
м/с
влажн.,
%
обл.,
%
осадки,
мм/ч
давл.,
гПа
погр.,
м
26 октября, вт
вт2623:00+9юз269495 0.0 1021143
02:00+8юз259742 0.0 1021119
05:00+7юз3109459 0.0 1021244
08:00+8юз2997100 0.0 1022266
11:00+11юз3989100 0.0 1023342
14:00+16зюз477099 0.0 1023993
17:00+17зюз3764100 0.0 10211163
20:00+11ююз268997 0.0 1023120
27 октября, ср
ср2723:00+10ююз299420 0.0 1024227
02:00+9ююз2109896 0.0 1024257
05:00+9ююз299870 0.0 1023244
08:00+8ююз289824 0.0 1023201
11:00+11ююз39855 0.0 1023304
14:00+16ююз475860 0.0 1022666
17:00+16ю375957 0.0 1020769
20:00+11ю27885 0.0 1020121
28 октября, чт
чт2823:00+10ю28885 0.0 1020148
02:00+9ю210875 0.0 1018204
05:00+8ю39850 0.0 1016184
08:00+8ю311835 0.0 1016218
11:00+11ю412670 0.0 1015388
14:00+16ю511540 0.0 1012727
17:00+16ю510560 0.0 1010976
20:00+12ю4136769 0.0 1010564
29 октября, пт
пт2923:00+11ю51578100 0.0 1009581
02:00+12ю51775100 0.0 1007694
05:00+12ю51675100 0.0 1006631
08:00+12ююз51582100 0.2 1005992
11:00+11ю51497100 2.4 1006905
14:00+11ю41297100 6.1 1005638
17:00+13юз511855 0.8 10041056
20:00+12ююз51286100 0.8 1006728
30 октября, сб
сб3023:00+10ю4119333 0.7 1006475
02:00+10ю4129671 1.1 1006533
05:00+12ююз4108797 0.1 1005815
08:00+12ююз3993100 0.2 1006562
11:00+12ю3996100 0.3 1006559
14:00+12ю31097100 1.8 1005543
17:00+14ю4109399 0.1 1004685
20:00+14ю41195100 0.2 1003654